Date String (YYYY-MM-DD hh:mm:ss) UTC,Instrument flags,absolute air pressure of the measurement (hPa),sample flow rate (lpm),inlet stack bypass flow (lpm),air temperature of the measurement (°C),ambient temperature measured by the external sensor (°C),aerosol sample conditioner tube jacket temperature (°C),OPC LED temperature (°C),internal box temperature (°C),relative humidity of the measurement (%),span deviation,mass concentration of particles derived from Lorenz-Mie calculation of OPC scattering (μg/m³),mass concentration of particles derived from Lorenz-Mie calculation of OPC scattering (μg/m³),mass concentration of particles derived from Lorenz-Mie calculation of OPC scattering (μg/m³)
DateTimeUTC,F1_M11,P_M11,Q1_M11,Q2_M11,T1_M11,T2_M11,T3_M11,T4_M11,T5_M11,U1_M11,ZSPAN_M11,X0_M11,X2_M11,X1_M11
2024-04-17 20:00:00,SystemResetWarning,0823.0,5.00,000.00,025.1,022.7,000.0,033.9,026.1,013.6,0000.0,0007.67,0002.56,0001.67
2024-04-17 20:01:00,SystemResetWarning,0823.1,5.00,000.00,025.1,023.0,000.0,033.8,026.4,013.3,0000.0,0007.82,0002.57,0001.65
2024-04-17 20:02:00,SystemResetWarning,0823.1,5.01,000.00,025.1,023.3,000.0,033.7,026.6,013.2,0000.0,0006.98,0002.51,0001.63
2024-04-17 20:03:00,SystemResetWarning,0822.9,5.01,000.00,025.2,023.6,000.0,033.7,026.8,013.5,0000.0,0007.07,0002.53,0001.61
2024-04-17 20:04:00,SystemResetWarning,0823.0,4.99,000.00,025.2,023.9,000.0,033.7,027.0,013.6,0000.0,0007.09,0002.51,0001.60
2024-04-17 20:05:00,SystemResetWarning,0823.2,4.99,000.00,025.3,024.1,000.0,033.7,027.1,014.1,0000.0,0007.03,0002.54,0001.61
2024-04-17 20:06:00,SystemResetWarning,0822.9,5.00,000.00,025.3,024.3,000.0,033.7,027.1,013.4,0000.0,0007.06,0002.55,0001.62
2024-04-17 20:07:00,SystemResetWarning,0823.1,5.00,000.00,025.4,024.5,000.0,033.7,027.2,013.3,0000.0,0006.80,0002.52,0001.63
2024-04-17 20:08:00,SystemResetWarning,0823.0,5.01,000.00,025.4,024.6,000.0,033.7,027.3,013.4,0000.0,0007.88,0002.50,0001.64
2024-04-17 20:09:00,SystemResetWarning,0823.0,5.01,000.00,025.5,024.7,000.0,033.7,027.4,013.5,0000.0,0007.83,0002.51,0001.64
2024-04-17 20:10:00,SystemResetWarning,0823.0,4.99,000.00,025.5,024.8,000.0,033.7,027.4,013.5,0000.0,0007.80,0002.53,0001.64
2024-04-17 20:11:00,SystemResetWarning,0823.1,4.99,000.00,025.6,024.9,000.0,033.8,027.5,013.6,0000.0,0007.68,0002.50,0001.63
2024-04-17 20:12:00,SystemResetWarning,0823.0,5.00,000.00,025.6,025.0,000.0,033.8,027.6,013.2,0000.0,0007.48,0002.50,0001.64
2024-04-17 20:13:00,SystemResetWarning,0823.0,5.01,000.00,025.7,025.1,000.0,033.8,027.6,013.1,0000.0,0007.42,0002.51,0001.65
2024-04-17 20:14:00,SystemResetWarning,0822.9,5.00,000.00,025.7,025.2,000.0,033.9,027.7,013.1,0000.0,0007.44,0002.55,0001.66
2024-04-17 20:15:00,SystemResetWarning,0823.0,4.99,000.00,025.8,025.2,000.0,033.9,027.7,013.7,0000.0,0007.53,0002.64,0001.68
2024-04-17 20:16:00,SystemResetWarning,0822.9,4.98,000.00,025.6,023.8,000.0,034.0,026.8,014.2,0000.0,0007.53,0002.68,0001.68
2024-04-17 20:17:00,SystemResetWarning,0823.0,5.03,000.00,025.3,022.6,000.0,034.0,026.1,013.8,0000.0,0006.79,0002.68,0001.67
2024-04-17 20:18:00,SystemResetWarning,0822.9,5.00,000.00,025.1,022.8,000.0,033.9,026.1,014.2,0000.0,0006.70,0002.70,0001.66
2024-04-17 20:19:00,SystemResetWarning,0822.8,5.00,000.00,025.1,023.1,000.0,033.8,026.4,014.3,0000.0,0005.53,0002.81,0001.65
2024-04-17 20:20:00,SystemResetWarning,0822.8,5.01,000.00,025.1,023.4,000.0,033.7,026.7,013.7,0000.0,0006.16,0002.87,0001.65
2024-04-17 20:21:00,SystemResetWarning,0822.9,5.00,000.00,025.2,023.7,000.0,033.7,026.8,013.9,0000.0,0006.17,0002.81,0001.63
2024-04-17 20:22:00,SystemResetWarning,0822.9,4.99,000.00,025.2,024.0,000.0,033.7,027.0,013.8,0000.0,0006.22,0002.80,0001.64
2024-04-17 20:23:00,SystemResetWarning,0822.8,5.00,000.00,025.3,024.2,000.0,033.7,027.1,014.3,0000.0,0006.15,0002.77,0001.64
2024-04-17 20:24:00,SystemResetWarning,0822.8,4.99,000.00,025.3,024.4,000.0,033.7,027.2,013.6,0000.0,0006.13,0002.73,0001.63
2024-04-17 20:25:00,SystemResetWarning,0822.7,4.99,000.00,025.4,024.5,000.0,033.7,027.3,013.4,0000.0,0006.00,0002.64,0001.62
2024-04-17 20:26:00,SystemResetWarning,0822.7,4.99,000.00,025.4,024.7,000.0,033.7,027.4,013.5,0000.0,0006.13,0002.58,0001.61
2024-04-17 20:27:00,SystemResetWarning,0822.9,5.00,000.00,025.5,024.8,000.0,033.7,027.4,013.8,0000.0,0006.17,0002.60,0001.60
2024-04-17 20:28:00,SystemResetWarning,0822.7,5.02,000.00,025.6,024.9,000.0,033.8,027.5,014.3,0000.0,0007.05,0002.62,0001.61
2024-04-17 20:29:00,SystemResetWarning,0822.7,5.00,000.00,025.6,025.0,000.0,033.8,027.5,014.7,0000.0,0007.65,0002.69,0001.63
2024-04-17 20:30:00,SystemResetWarning,0822.7,5.00,000.00,025.7,025.1,000.0,033.8,027.6,014.3,0000.0,0007.58,0002.58,0001.64
2024-04-17 20:31:00,SystemResetWarning,0822.7,4.99,000.00,025.7,025.2,000.0,033.9,027.7,014.2,0000.0,0006.98,0002.53,0001.66
2024-04-17 20:32:00,SystemResetWarning,0822.8,5.00,000.00,025.8,025.2,000.0,033.9,027.7,013.9,0000.0,0006.97,0002.61,0001.67
2024-04-17 20:33:00,SystemResetWarning,0822.6,4.99,000.00,025.7,023.9,000.0,034.0,026.9,013.8,0000.0,0006.96,0002.60,0001.66
2024-04-17 20:34:00,SystemResetWarning,0822.7,5.02,000.00,025.3,022.6,000.0,034.0,026.2,014.5,0000.0,0007.27,0002.64,0001.67
2024-04-17 20:35:00,SystemResetWarning,0822.7,5.00,000.00,025.1,022.8,000.0,033.9,026.1,014.5,0000.0,0007.39,0002.72,0001.68
2024-04-17 20:36:00,SystemResetWarning,0822.8,5.00,000.00,025.1,023.1,000.0,033.8,026.4,014.5,0000.0,0007.86,0002.75,0001.68
2024-04-17 20:37:00,SystemResetWarning,0823.0,5.00,000.00,025.1,023.4,000.0,033.7,026.7,014.4,0000.0,0008.22,0002.76,0001.68
2024-04-17 20:38:00,SystemResetWarning,0822.7,5.01,000.00,025.2,023.7,000.0,033.7,026.9,014.3,0000.0,0008.77,0002.73,0001.67
2024-04-17 20:39:00,SystemResetWarning,0822.8,5.01,000.00,025.2,024.0,000.0,033.7,027.0,013.9,0000.0,0008.68,0002.67,0001.65
2024-04-17 20:40:00,SystemResetWarning,0822.8,5.00,000.00,025.3,024.2,000.0,033.7,027.1,013.9,0000.0,0008.31,0002.62,0001.63
2024-04-17 20:41:00,SystemResetWarning,0822.8,5.00,000.00,025.3,024.4,000.0,033.7,027.2,013.8,0000.0,0008.13,0002.60,0001.62
2024-04-17 20:42:00,SystemResetWarning,0822.8,5.00,000.00,025.4,024.6,000.0,033.7,027.3,013.5,0000.0,0008.17,0002.61,0001.61
2024-04-17 20:43:00,SystemResetWarning,0822.9,5.00,000.00,025.5,024.7,000.0,033.7,027.4,013.8,0000.0,0008.14,0002.60,0001.61
2024-04-17 20:44:00,SystemResetWarning,0822.5,5.00,000.00,025.5,024.8,000.0,033.7,027.5,013.3,0000.0,0008.60,0002.61,0001.61
2024-04-17 20:45:00,SystemResetWarning,0822.7,4.99,000.00,025.6,025.0,000.0,033.8,027.5,013.8,0000.0,0008.70,0002.57,0001.60
2024-04-17 20:46:00,SystemResetWarning,0822.7,5.00,000.00,025.6,025.1,000.0,033.8,027.6,013.4,0000.0,0009.07,0002.54,0001.59
2024-04-17 20:47:00,SystemResetWarning,0822.5,5.00,000.00,025.7,025.1,000.0,033.8,027.6,013.8,0000.0,0008.78,0002.57,0001.60
2024-04-17 20:48:00,SystemResetWarning,0822.5,4.98,000.00,025.6,023.8,000.0,033.9,026.8,013.8,0000.0,0008.28,0002.62,0001.61
2024-04-17 20:49:00,SystemResetWarning,0822.4,5.01,000.00,025.1,022.0,000.0,033.9,025.7,014.1,0000.0,0008.66,0002.68,0001.64
2024-04-17 20:50:00,SystemResetWarning,0822.5,5.01,000.00,024.9,021.9,000.0,033.8,025.6,014.1,0000.0,0008.39,0002.71,0001.66
2024-04-17 20:51:00,SystemResetWarning,0823.0,5.00,000.00,024.8,022.3,000.0,033.7,025.8,014.4,0000.0,0008.27,0002.72,0001.66
2024-04-17 20:52:00,SystemResetWarning,0822.9,5.00,000.00,024.8,022.7,000.0,033.6,026.2,014.4,0000.0,0008.27,0002.74,0001.66
2024-04-17 20:53:00,SystemResetWarning,0822.8,4.99,000.00,024.8,023.1,000.0,033.5,026.4,014.1,0000.0,0008.26,0002.72,0001.65
2024-04-17 20:54:00,SystemResetWarning,0822.9,5.00,000.00,024.9,023.4,000.0,033.5,026.6,013.9,0000.0,0008.21,0002.68,0001.64
2024-04-17 20:55:00,SystemResetWarning,0823.1,5.00,000.00,025.0,023.7,000.0,033.4,026.8,013.8,0000.0,0007.64,0002.62,0001.65
2024-04-17 20:56:00,SystemResetWarning,0823.0,5.00,000.00,025.0,024.0,000.0,033.4,026.9,013.8,0000.0,0007.43,0002.64,0001.66
2024-04-17 20:57:00,SystemResetWarning,0822.6,5.00,000.00,025.1,024.2,000.0,033.4,027.0,014.0,0000.0,0007.29,0002.60,0001.65
2024-04-17 20:58:00,SystemResetWarning,0822.5,4.99,000.00,025.2,024.4,000.0,033.5,027.1,014.2,0000.0,0008.01,0002.61,0001.65
2024-04-17 20:59:00,SystemResetWarning,0822.7,5.00,000.00,025.2,024.5,000.0,033.5,027.1,013.8,0000.0,0008.04,0002.58,0001.65
